| time (UTC) | temp C | wind direction | speed KPH | gust KPH | rain 1hr cm | rain 24hr cm | rain mn cm | humidity % | barometer mb |
| 20260904104154 | 32 | 138 | 0.0 | 4.8 | 0.00 | 0.00 | 0.00 | 31 | 1022.8 |
| 20260904103656 | 33 | 132 | 0.0 | 4.8 | 0.00 | 0.00 | 0.00 | 33 | 1022.9 |
| 20260904103156 | 32 | 113 | 0.0 | 4.8 | 0.00 | 0.00 | 0.00 | 34 | 1022.9 |
| 20260904102653 | 32 | 114 | 0.0 | 4.8 | 0.00 | 0.00 | 0.00 | 32 | 1022.9 |
| 20260904102152 | 32 | 138 | 0.0 | 6.4 | 0.00 | 0.00 | 0.00 | 33 | 1022.9 |
| 20260904101648 | 32 | 141 | 0.0 | 6.4 | 0.00 | 0.00 | 0.00 | 33 | 1023.0 |
| 20260904101147 | 32 | 131 | 0.0 | 6.4 | 0.00 | 0.00 | 0.00 | 33 | 1023.1 |
| 20260904100143 | 32 | 116 | 0.0 | 8.0 | 0.00 | 0.00 | 0.00 | 34 | 1023.1 |
| 20260904095644 | 31 | 106 | 0.0 | 4.8 | 0.00 | 0.00 | 0.00 | 35 | 1023.1 |
| 20260904095142 | 31 | 107 | 0.0 | 4.8 | 0.00 | 0.00 | 0.00 | 35 | 1023.2 |
| 20260904094140 | 31 | 105 | 0.0 | 4.8 | 0.00 | 0.00 | 0.00 | 37 | 1023.2 |
| 20260904093131 | 30 | 140 | 0.0 | 6.4 | 0.00 | 0.00 | 0.00 | 38 | 1023.4 |
| 20260904092626 | 30 | 117 | 0.0 | 6.4 | 0.00 | 0.00 | 0.00 | 37 | 1023.4 |
| 20260904092128 | 30 | 114 | 1.6 | 6.4 | 0.00 | 0.00 | 0.00 | 38 | 1023.4 |
| 20260904091625 | 30 | 125 | 0.0 | 8.0 | 0.00 | 0.00 | 0.00 | 41 | 1023.4 |
| 20260904091125 | 30 | 73 | 0.0 | 8.0 | 0.00 | 0.00 | 0.00 | 40 | 1023.5 |
| 20260904090624 | 30 | 91 | 0.0 | 4.8 | 0.00 | 0.00 | 0.00 | 42 | 1023.5 |
| 20260904090125 | 30 | 91 | 0.0 | 4.8 | 0.00 | 0.00 | 0.00 | 40 | 1023.5 |
| 20260904085625 | 30 | 86 | 0.0 | 3.2 | 0.00 | 0.00 | 0.00 | 44 | 1023.4 |
| 20260904084125 | 28 | 84 | 0.0 | 6.4 | 0.00 | 0.00 | 0.00 | 49 | 1023.4 |
| 20260904083625 | 28 | 98 | 0.0 | 6.4 | 0.00 | 0.00 | 0.00 | 52 | 1023.3 |
| 20260904083124 | 28 | 97 | 0.0 | 4.8 | 0.00 | 0.00 | 0.00 | 53 | 1023.4 |
| 20260904082122 | 28 | 111 | 0.0 | 4.8 | 0.00 | 0.00 | 0.00 | 56 | 1023.3 |
| 20260904081623 | 28 | 105 | 0.0 | 1.6 | 0.00 | 0.00 | 0.00 | 56 | 1023.3 |
| 20260904080622 | 27 | 125 | 0.0 | 1.6 | 0.00 | 0.00 | 0.00 | 59 | 1023.3 |
| 20260904080120 | 27 | 126 | 0.0 | 1.6 | 0.00 | 0.00 | 0.00 | 60 | 1023.2 |
| 20260904075616 | 27 | 143 | 0.0 | 0.0 | 0.00 | 0.00 | 0.00 | 62 | 1023.2 |
| 20260904075110 | 26 | 143 | 0.0 | 1.6 | 0.00 | 0.00 | 0.00 | 62 | 1023.1 |
| 20260904074603 | 26 | 143 | 0.0 | 1.6 | 0.00 | 0.00 | 0.00 | 63 | 1023.2 |
| 20260904074056 | 26 | 143 | 0.0 | 1.6 | 0.00 | 0.00 | 0.00 | 65 | 1023.2 |
| 20260904073552 | 25 | 143 | 0.0 | 1.6 | 0.00 | 0.00 | 0.00 | 64 | 1023.1 |
| 20260904073044 | 25 | 145 | 0.0 | 1.6 | 0.00 | 0.00 | 0.00 | 65 | 1023.2 |
| 20260904072539 | 25 | 146 | 0.0 | 6.4 | 0.00 | 0.00 | 0.00 | 67 | 1023.2 |
| 20260904072033 | 25 | 148 | 0.0 | 6.4 | 0.00 | 0.00 | 0.00 | 67 | 1023.2 |
| 20260904071528 | 24 | 255 | 0.0 | 0.0 | 0.00 | 0.00 | 0.00 | 68 | 1023.2 |
| 20260904071022 | 24 | 259 | 0.0 | 0.0 | 0.00 | 0.00 | 0.00 | 69 | 1023.2 |
| 20260904070521 | 23 | 259 | 0.0 | 0.0 | 0.00 | 0.00 | 0.00 | 70 | 1023.3 |
| 20260904070025 | 23 | 259 | 0.0 | 0.0 | 0.00 | 0.00 | 0.00 | 71 | 1023.2 |
| 20260904065519 | 23 | 260 | 0.0 | 0.0 | 0.00 | 0.00 | 0.00 | 73 | 1023.2 |
| 20260904065019 | 22 | 260 | 0.0 | 0.0 | 0.00 | 0.00 | 0.00 | 74 | 1023.2 |
| 20260904064017 | 21 | 261 | 0.0 | 0.0 | 0.00 | 0.00 | 0.00 | 77 | 1023.2 |
| 20260904063515 | 21 | 261 | 0.0 | 0.0 | 0.00 | 0.00 | 0.00 | 78 | 1023.2 |
| 20260904063019 | 20 | 261 | 0.0 | 0.0 | 0.00 | 0.00 | 0.00 | 80 | 1023.3 |
| 20260904062517 | 20 | 261 | 0.0 | 0.0 | 0.00 | 0.00 | 0.00 | 80 | 1023.2 |
| 20260904062016 | 20 | 261 | 0.0 | 0.0 | 0.00 | 0.00 | 0.00 | 81 | 1023.3 |
| 20260904061512 | 19 | 262 | 0.0 | 0.0 | 0.00 | 0.00 | 0.00 | 83 | 1023.2 |
| 20260904061013 | 18 | 274 | 0.0 | 0.0 | 0.00 | 0.00 | 0.00 | 84 | 1023.2 |
| 20260904060513 | 18 | 274 | 0.0 | 0.0 | 0.00 | 0.00 | 0.00 | 85 | 1023.1 |
| 20260904060009 | 18 | 274 | 0.0 | 0.0 | 0.00 | 0.00 | 0.00 | 85 | 1023.2 |
| 20260904055006 | 17 | 273 | 0.0 | 0.0 | 0.00 | 0.00 | 0.00 | 86 | 1023.2 |
| 20260904054505 | 17 | 273 | 0.0 | 0.0 | 0.00 | 0.00 | 0.00 | 86 | 1023.2 |
| 20260904054002 | 17 | 273 | 0.0 | 0.0 | 0.00 | 0.00 | 0.00 | 86 | 1023.2 |
| 20260904053500 | 17 | 274 | 0.0 | 0.0 | 0.00 | 0.00 | 0.00 | 87 | 1023.1 |
| 20260904053001 | 17 | 274 | 0.0 | 0.0 | 0.00 | 0.00 | 0.00 | 87 | 1023.1 |
| 20260904052459 | 17 | 274 | 0.0 | 3.2 | 0.00 | 0.00 | 0.00 | 87 | 1023.1 |
| 20260904052000 | 17 | 274 | 1.6 | 6.4 | 0.00 | 0.00 | 0.00 | 86 | 1023.1 |
| 20260904051500 | 17 | 272 | 0.0 | 6.4 | 0.00 | 0.00 | 0.00 | 86 | 1022.9 |
| 20260904051000 | 16 | 273 | 0.0 | 3.2 | 0.00 | 0.00 | 0.00 | 86 | 1023.0 |
| 20260904050501 | 16 | 265 | 0.0 | 3.2 | 0.00 | 0.00 | 0.00 | 86 | 1022.9 |
| 20260904050000 | 16 | 264 | 0.0 | 1.6 | 0.00 | 0.00 | 0.00 | 86 | 1022.9 |
| 20260904045501 | 16 | 270 | 0.0 | 0.0 | 0.00 | 0.00 | 0.00 | 86 | 1022.8 |
| 20260904044956 | 16 | 271 | 0.0 | 6.4 | 0.00 | 0.00 | 0.00 | 85 | 1022.7 |
| 20260904044457 | 17 | 271 | 0.0 | 6.4 | 0.00 | 0.00 | 0.00 | 85 | 1022.7 |
| 20260904043957 | 17 | 278 | 0.0 | 0.0 | 0.00 | 0.00 | 0.00 | 85 | 1022.7 |
| 20260904043456 | 17 | 278 | 0.0 | 0.0 | 0.00 | 0.00 | 0.00 | 85 | 1022.6 |
| 20260904041957 | 17 | 276 | 0.0 | 4.8 | 0.00 | 0.00 | 0.00 | 85 | 1022.6 |
| 20260904041459 | 17 | 279 | 0.0 | 4.8 | 0.00 | 0.00 | 0.00 | 85 | 1022.5 |
| 20260904040958 | 17 | 279 | 0.0 | 4.8 | 0.00 | 0.00 | 0.00 | 85 | 1022.5 |
| 20260904040456 | 17 | 273 | 0.0 | 4.8 | 0.00 | 0.00 | 0.00 | 85 | 1022.4 |
| 20260904035956 | 17 | 285 | 0.0 | 4.8 | 0.00 | 0.00 | 0.00 | 85 | 1022.5 |
| 20260904035456 | 17 | 285 | 0.0 | 4.8 | 0.00 | 0.00 | 0.00 | 84 | 1022.5 |
| 20260904034958 | 17 | 274 | 0.0 | 0.0 | 0.00 | 0.00 | 0.00 | 84 | 1022.5 |
| 20260904034457 | 17 | 274 | 0.0 | 0.0 | 0.00 | 0.00 | 0.00 | 84 | 1022.5 |
| 20260904033956 | 17 | 274 | 0.0 | 0.0 | 0.00 | 0.00 | 0.00 | 84 | 1022.5 |
| 20260904033456 | 17 | 274 | 0.0 | 1.6 | 0.00 | 0.00 | 0.00 | 84 | 1022.5 |
| 20260904032455 | 17 | 273 | 0.0 | 0.0 | 0.00 | 0.00 | 0.00 | 84 | 1022.3 |
| 20260904031951 | 17 | 271 | 0.0 | 0.0 | 0.00 | 0.00 | 0.00 | 84 | 1022.3 |
| 20260904031443 | 17 | 273 | 0.0 | 4.8 | 0.00 | 0.00 | 0.00 | 84 | 1022.4 |
| 20260904030937 | 17 | 269 | 1.6 | 6.4 | 0.00 | 0.00 | 0.00 | 83 | 1022.4 |
| 20260904030431 | 17 | 273 | 1.6 | 8.0 | 0.00 | 0.00 | 0.00 | 83 | 1022.4 |
| 20260904025924 | 17 | 282 | 3.2 | 9.7 | 0.00 | 0.00 | 0.00 | 82 | 1022.3 |
| 20260904025418 | 17 | 265 | 3.2 | 9.7 | 0.00 | 0.00 | 0.00 | 82 | 1022.4 |
| 20260904024914 | 17 | 274 | 1.6 | 9.7 | 0.00 | 0.00 | 0.00 | 81 | 1022.4 |
| 20260904024416 | 18 | 272 | 1.6 | 9.7 | 0.00 | 0.00 | 0.00 | 81 | 1022.4 |
| 20260904023912 | 18 | 268 | 3.2 | 9.7 | 0.00 | 0.00 | 0.00 | 81 | 1022.3 |
| 20260904022909 | 18 | 266 | 0.0 | 3.2 | 0.00 | 0.00 | 0.00 | 80 | 1022.5 |
| 20260904022409 | 18 | 273 | 0.0 | 4.8 | 0.00 | 0.00 | 0.00 | 80 | 1022.5 |
| 20260904021908 | 18 | 272 | 0.0 | 6.4 | 0.00 | 0.00 | 0.00 | 80 | 1022.6 |
| 20260904021409 | 18 | 274 | 0.0 | 6.4 | 0.00 | 0.00 | 0.00 | 80 | 1022.5 |
| 20260904020407 | 18 | 269 | 1.6 | 8.0 | 0.00 | 0.00 | 0.00 | 80 | 1022.5 |
| 20260904015905 | 18 | 261 | 3.2 | 9.7 | 0.00 | 0.00 | 0.00 | 80 | 1022.5 |
| 20260904015418 | 18 | 282 | 3.2 | 9.7 | 0.00 | 0.00 | 0.00 | 80 | 1022.5 |
| 20260904014903 | 18 | 273 | 0.0 | 9.7 | 0.00 | 0.00 | 0.00 | 79 | 1022.5 |
| 20260904013900 | 18 | 272 | 1.6 | 6.4 | 0.00 | 0.00 | 0.00 | 78 | 1022.6 |
| 20260904013357 | 18 | 270 | 0.0 | 4.8 | 0.00 | 0.00 | 0.00 | 78 | 1022.5 |
| 20260904012856 | 18 | 270 | 0.0 | 4.8 | 0.00 | 0.00 | 0.00 | 78 | 1022.6 |
| 20260904011854 | 18 | 274 | 1.6 | 8.0 | 0.00 | 0.00 | 0.00 | 79 | 1022.5 |
| 20260904011346 | 18 | 274 | 0.0 | 8.0 | 0.00 | 0.00 | 0.00 | 78 | 1022.5 |
| 20260904010841 | 18 | 266 | 0.0 | 1.6 | 0.00 | 0.00 | 0.00 | 78 | 1022.5 |
| 20260904010338 | 18 | 272 | 0.0 | 0.0 | 0.00 | 0.00 | 0.00 | 78 | 1022.4 |
| 20260904005831 | 18 | 270 | 0.0 | 1.6 | 0.00 | 0.00 | 0.00 | 78 | 1022.5 |
| 20260904005324 | 19 | 270 | 1.6 | 6.4 | 0.00 | 0.00 | 0.00 | 78 | 1022.6 |
| 20260904004817 | 19 | 264 | 1.6 | 6.4 | 0.00 | 0.00 | 0.00 | 78 | 1022.5 |
| 20260904004313 | 19 | 275 | 0.0 | 6.4 | 0.00 | 0.00 | 0.00 | 77 | 1022.5 |
| 20260904003259 | 19 | 266 | 1.6 | 8.0 | 0.00 | 0.00 | 0.00 | 78 | 1022.5 |
| 20260904002755 | 19 | 273 | 1.6 | 8.0 | 0.00 | 0.00 | 0.00 | 78 | 1022.5 |
| 20260904002249 | 19 | 274 | 1.6 | 8.0 | 0.00 | 0.00 | 0.00 | 78 | 1022.4 |
| 20260904001742 | 18 | 286 | 3.2 | 8.0 | 0.00 | 0.00 | 0.00 | 78 | 1022.5 |
| 20260904001236 | 18 | 275 | 3.2 | 11.3 | 0.00 | 0.00 | 0.00 | 77 | 1022.6 |
| 20260904000729 | 19 | 279 | 3.2 | 11.3 | 0.00 | 0.00 | 0.00 | 77 | 1022.5 |
| 20260904000226 | 19 | 279 | 1.6 | 9.7 | 0.00 | 0.00 | 0.00 | 76 | 1022.6 |
| 20260903235718 | 20 | 276 | 0.0 | 3.2 | 0.00 | 0.00 | 0.00 | 76 | 1022.6 |
| 20260903235216 | 20 | 272 | 0.0 | 6.4 | 0.00 | 0.00 | 0.00 | 75 | 1022.5 |
| 20260903234705 | 20 | 268 | 0.0 | 6.4 | 0.00 | 0.00 | 0.00 | 75 | 1022.5 |
| 20260903233655 | 20 | 270 | 0.0 | 0.0 | 0.00 | 0.00 | 0.00 | 75 | 1022.5 |
| 20260903233150 | 20 | 270 | 1.6 | 8.0 | 0.00 | 0.00 | 0.00 | 74 | 1022.5 |
| 20260903232641 | 20 | 274 | 1.6 | 8.0 | 0.00 | 0.00 | 0.00 | 74 | 1022.6 |
| 20260903231631 | 20 | 283 | 1.6 | 8.0 | 0.00 | 0.00 | 0.00 | 73 | 1022.6 |
| 20260903231122 | 20 | 276 | 0.0 | 6.4 | 0.00 | 0.00 | 0.00 | 73 | 1022.7 |
| 20260903230617 | 20 | 278 | 0.0 | 0.0 | 0.00 | 0.00 | 0.00 | 73 | 1022.6 |
| 20260903230111 | 20 | 278 | 0.0 | 1.6 | 0.00 | 0.00 | 0.00 | 73 | 1022.6 |
| 20260903225606 | 20 | 278 | 0.0 | 6.4 | 0.00 | 0.00 | 0.00 | 73 | 1022.6 |
| 20260903224555 | 20 | 274 | 0.0 | 6.4 | 0.00 | 0.00 | 0.00 | 73 | 1022.6 |
| 20260903224050 | 20 | 271 | 1.6 | 8.0 | 0.00 | 0.00 | 0.00 | 73 | 1022.6 |
| 20260903223554 | 21 | 269 | 1.6 | 8.0 | 0.00 | 0.00 | 0.00 | 73 | 1022.5 |
| 20260903223034 | 21 | 274 | 1.6 | 8.0 | 0.00 | 0.00 | 0.00 | 72 | 1022.5 |
| 20260903222529 | 21 | 275 | 1.6 | 8.0 | 0.00 | 0.00 | 0.00 | 71 | 1022.5 |
| 20260903222026 | 21 | 272 | 0.0 | 3.2 | 0.00 | 0.00 | 0.00 | 71 | 1022.3 |
| 20260903221519 | 21 | 276 | 0.0 | 3.2 | 0.00 | 0.00 | 0.00 | 71 | 1022.3 |
| 20260903221017 | 21 | 277 | 0.0 | 4.8 | 0.00 | 0.00 | 0.00 | 71 | 1022.1 |
| 20260903220513 | 21 | 276 | 0.0 | 4.8 | 0.00 | 0.00 | 0.00 | 70 | 1022.2 |
| 20260903220015 | 21 | 266 | 0.0 | 3.2 | 0.00 | 0.00 | 0.00 | 70 | 1022.2 |
| 20260903215513 | 21 | 267 | 0.0 | 0.0 | 0.00 | 0.00 | 0.00 | 70 | 1022.2 |
| 20260903214513 | 21 | 266 | 0.0 | 3.2 | 0.00 | 0.00 | 0.00 | 70 | 1022.2 |
| 20260903214010 | 21 | 266 | 0.0 | 4.8 | 0.00 | 0.00 | 0.00 | 70 | 1022.2 |
| 20260903213007 | 22 | 267 | 0.0 | 3.2 | 0.00 | 0.00 | 0.00 | 69 | 1022.2 |
| 20260903212506 | 22 | 264 | 0.0 | 4.8 | 0.00 | 0.00 | 0.00 | 69 | 1022.0 |
| 20260903212002 | 22 | 269 | 0.0 | 4.8 | 0.00 | 0.00 | 0.00 | 68 | 1022.1 |
| 20260903211500 | 22 | 271 | 1.6 | 4.8 | 0.00 | 0.00 | 0.00 | 69 | 1022.0 |
| 20260903211001 | 22 | 270 | 1.6 | 4.8 | 0.00 | 0.00 | 0.00 | 69 | 1022.1 |
| 20260903210458 | 22 | 274 | 0.0 | 3.2 | 0.00 | 0.00 | 0.00 | 69 | 1022.0 |
| 20260903205956 | 22 | 276 | 0.0 | 4.8 | 0.00 | 0.00 | 0.00 | 69 | 1021.9 |
| 20260903204951 | 22 | 274 | 0.0 | 3.2 | 0.00 | 0.00 | 0.00 | 68 | 1021.8 |
| 20260903203949 | 22 | 273 | 0.0 | 6.4 | 0.00 | 0.00 | 0.00 | 67 | 1021.8 |
| 20260903202949 | 22 | 272 | 0.0 | 6.4 | 0.00 | 0.00 | 0.00 | 66 | 1021.8 |
| 20260903202449 | 23 | 278 | 0.0 | 0.0 | 0.00 | 0.00 | 0.00 | 65 | 1021.8 |
| 20260903201951 | 23 | 279 | 0.0 | 1.6 | 0.00 | 0.00 | 0.00 | 65 | 1021.8 |
| 20260903201450 | 23 | 282 | 0.0 | 6.4 | 0.00 | 0.00 | 0.00 | 64 | 1021.8 |
| 20260903200950 | 23 | 283 | 0.0 | 6.4 | 0.00 | 0.00 | 0.00 | 63 | 1021.7 |
| 20260903195946 | 24 | 264 | 0.0 | 0.0 | 0.00 | 0.00 | 0.00 | 61 | 1021.6 |
| 20260903195446 | 24 | 264 | 0.0 | 0.0 | 0.00 | 0.00 | 0.00 | 61 | 1021.6 |
| 20260903194949 | 24 | 264 | 0.0 | 0.0 | 0.00 | 0.00 | 0.00 | 61 | 1021.6 |
| 20260903193943 | 25 | 264 | 0.0 | 0.0 | 0.00 | 0.00 | 0.00 | 60 | 1021.6 |
| 20260903193439 | 25 | 261 | 0.0 | 0.0 | 0.00 | 0.00 | 0.00 | 59 | 1021.6 |
| 20260903192941 | 25 | 261 | 0.0 | 0.0 | 0.00 | 0.00 | 0.00 | 59 | 1021.6 |
| 20260903192441 | 25 | 261 | 0.0 | 0.0 | 0.00 | 0.00 | 0.00 | 59 | 1021.7 |
| 20260903191438 | 26 | 257 | 0.0 | 0.0 | 0.00 | 0.00 | 0.00 | 57 | 1021.5 |
| 20260903190935 | 26 | 250 | 0.0 | 0.0 | 0.00 | 0.00 | 0.00 | 56 | 1021.4 |
| 20260903190439 | 26 | 254 | 0.0 | 0.0 | 0.00 | 0.00 | 0.00 | 55 | 1021.3 |
| 20260903185933 | 26 | 254 | 0.0 | 0.0 | 0.00 | 0.00 | 0.00 | 55 | 1021.2 |
| 20260903185433 | 26 | 254 | 0.0 | 0.0 | 0.00 | 0.00 | 0.00 | 55 | 1021.2 |
| 20260903184927 | 26 | 254 | 0.0 | 0.0 | 0.00 | 0.00 | 0.00 | 55 | 1021.2 |
| 20260903184427 | 27 | 254 | 0.0 | 0.0 | 0.00 | 0.00 | 0.00 | 54 | 1021.1 |
| 20260903183926 | 27 | 252 | 0.0 | 0.0 | 0.00 | 0.00 | 0.00 | 53 | 1021.0 |
| 20260903183425 | 27 | 110 | 0.0 | 0.0 | 0.00 | 0.00 | 0.00 | 52 | 1020.9 |
| 20260903182927 | 28 | 110 | 0.0 | 0.0 | 0.00 | 0.00 | 0.00 | 50 | 1020.8 |
| 20260903182426 | 28 | 109 | 0.0 | 0.0 | 0.00 | 0.00 | 0.00 | 50 | 1020.7 |
| 20260903181925 | 28 | 109 | 0.0 | 0.0 | 0.00 | 0.00 | 0.00 | 49 | 1020.6 |
| 20260903181425 | 29 | 110 | 0.0 | 0.0 | 0.00 | 0.00 | 0.00 | 49 | 1020.5 |
| 20260903180925 | 29 | 110 | 0.0 | 0.0 | 0.00 | 0.00 | 0.00 | 49 | 1020.3 |
| 20260903180423 | 29 | 110 | 0.0 | 0.0 | 0.00 | 0.00 | 0.00 | 48 | 1020.4 |
| 20260903175923 | 30 | 110 | 0.0 | 0.0 | 0.00 | 0.00 | 0.00 | 46 | 1020.2 |
| 20260903175423 | 30 | 110 | 0.0 | 0.0 | 0.00 | 0.00 | 0.00 | 46 | 1020.2 |
| 20260903174423 | 30 | 110 | 0.0 | 0.0 | 0.00 | 0.00 | 0.00 | 44 | 1020.0 |
| 20260903173923 | 31 | 110 | 0.0 | 0.0 | 0.00 | 0.00 | 0.00 | 43 | 1019.9 |
| 20260903173423 | 31 | 110 | 0.0 | 0.0 | 0.00 | 0.00 | 0.00 | 42 | 1020.0 |
| 20260903172921 | 32 | 110 | 0.0 | 0.0 | 0.00 | 0.00 | 0.00 | 38 | 1019.8 |
| 20260903172420 | 32 | 110 | 0.0 | 0.0 | 0.00 | 0.00 | 0.00 | 37 | 1020.0 |
| 20260903171921 | 32 | 110 | 0.0 | 0.0 | 0.00 | 0.00 | 0.00 | 36 | 1020.0 |
| 20260903171414 | 33 | 110 | 0.0 | 0.0 | 0.00 | 0.00 | 0.00 | 36 | 1020.0 |
| 20260903170913 | 33 | 110 | 0.0 | 0.0 | 0.00 | 0.00 | 0.00 | 36 | 1020.2 |
| 20260903170413 | 33 | 110 | 0.0 | 0.0 | 0.00 | 0.00 | 0.00 | 35 | 1020.3 |
| 20260903165913 | 33 | 110 | 0.0 | 0.0 | 0.00 | 0.00 | 0.00 | 34 | 1020.3 |
| 20260903165411 | 33 | 110 | 0.0 | 1.6 | 0.00 | 0.00 | 0.00 | 35 | 1020.2 |
| 20260903164913 | 33 | 110 | 0.0 | 1.6 | 0.00 | 0.00 | 0.00 | 34 | 1020.2 |
| 20260903164411 | 33 | 148 | 0.0 | 4.8 | 0.00 | 0.00 | 0.00 | 34 | 1020.0 |
| 20260903163910 | 33 | 147 | 0.0 | 4.8 | 0.00 | 0.00 | 0.00 | 34 | 1020.0 |
| 20260903163408 | 33 | 130 | 0.0 | 1.6 | 0.00 | 0.00 | 0.00 | 34 | 1020.0 |
| 20260903162905 | 33 | 130 | 0.0 | 3.2 | 0.00 | 0.00 | 0.00 | 34 | 1019.9 |
| 20260903162403 | 33 | 158 | 0.0 | 3.2 | 0.00 | 0.00 | 0.00 | 34 | 1019.8 |
| 20260903161903 | 33 | 143 | 0.0 | 1.6 | 0.00 | 0.00 | 0.00 | 33 | 1019.9 |
| 20260903161403 | 33 | 141 | 0.0 | 4.8 | 0.00 | 0.00 | 0.00 | 33 | 1019.9 |
| 20260903160918 | 33 | 139 | 0.0 | 4.8 | 0.00 | 0.00 | 0.00 | 33 | 1019.9 |
| 20260903160403 | 33 | 141 | 0.0 | 4.8 | 0.00 | 0.00 | 0.00 | 33 | 1020.0 |
| 20260903155901 | 33 | 108 | 1.6 | 9.7 | 0.00 | 0.00 | 0.00 | 34 | 1019.9 |
| 20260903155401 | 33 | 108 | 1.6 | 9.7 | 0.00 | 0.00 | 0.00 | 33 | 1019.9 |
| 20260903154902 | 34 | 103 | 1.6 | 8.0 | 0.00 | 0.00 | 0.00 | 33 | 1020.0 |
| 20260903154407 | 34 | 118 | 1.6 | 9.7 | 0.00 | 0.00 | 0.00 | 33 | 1020.0 |
| 20260903153855 | 34 | 106 | 0.0 | 9.7 | 0.00 | 0.00 | 0.00 | 32 | 1020.0 |
| 20260903152855 | 35 | 120 | 0.0 | 6.4 | 0.00 | 0.00 | 0.00 | 32 | 1020.0 |
| 20260903152352 | 35 | 310 | 0.0 | 6.4 | 0.00 | 0.00 | 0.00 | 32 | 1019.9 |
| 20260903151354 | 35 | 105 | 0.0 | 4.8 | 0.00 | 0.00 | 0.00 | 32 | 1019.9 |
| 20260903150853 | 35 | 110 | 0.0 | 4.8 | 0.00 | 0.00 | 0.00 | 32 | 1019.9 |
| 20260903150353 | 35 | 296 | 0.0 | 9.7 | 0.00 | 0.00 | 0.00 | 32 | 1020.0 |
| 20260903145854 | 35 | 283 | 1.6 | 11.3 | 0.00 | 0.00 | 0.00 | 31 | 1020.0 |
| 20260903144855 | 35 | 274 | 1.6 | 12.9 | 0.00 | 0.00 | 0.00 | 31 | 1020.0 |
| 20260903143850 | 35 | 287 | 0.0 | 8.0 | 0.00 | 0.00 | 0.00 | 31 | 1020.0 |
| 20260903143349 | 35 | 271 | 0.0 | 8.0 | 0.00 | 0.00 | 0.00 | 31 | 1019.9 |
| 20260903142849 | 35 | 129 | 0.0 | 3.2 | 0.00 | 0.00 | 0.00 | 30 | 1019.8 |
| 20260903142348 | 35 | 119 | 0.0 | 3.2 | 0.00 | 0.00 | 0.00 | 31 | 1019.9 |
| 20260903141849 | 35 | 338 | 0.0 | 4.8 | 0.00 | 0.00 | 0.00 | 31 | 1019.9 |
| 20260903141351 | 35 | 325 | 0.0 | 4.8 | 0.00 | 0.00 | 0.00 | 31 | 1020.0 |
| 20260903140349 | 34 | 285 | 0.0 | 8.0 | 0.00 | 0.00 | 0.00 | 31 | 1019.9 |
| 20260903135851 | 34 | 131 | 0.0 | 6.4 | 0.00 | 0.00 | 0.00 | 31 | 1020.0 |
| 20260903134349 | 35 | 309 | 0.0 | 1.6 | 0.00 | 0.00 | 0.00 | 32 | 1020.3 |
| 20260903133850 | 35 | 268 | 0.0 | 11.3 | 0.00 | 0.00 | 0.00 | 30 | 1020.4 |
| 20260903132851 | 35 | 60 | 0.0 | 4.8 | 0.00 | 0.00 | 0.00 | 30 | 1020.4 |
| 20260903130850 | 34 | 115 | 0.0 | 8.0 | 0.00 | 0.00 | 0.00 | 31 | 1020.3 |
| 20260903130349 | 34 | 320 | 0.0 | 8.0 | 0.00 | 0.00 | 0.00 | 31 | 1020.3 |
| 20260903125348 | 34 | 314 | 0.0 | 4.8 | 0.00 | 0.00 | 0.00 | 32 | 1020.4 |
| 20260903124849 | 34 | 349 | 1.6 | 9.7 | 0.00 | 0.00 | 0.00 | 32 | 1020.4 |
| 20260903124349 | 34 | 319 | 3.2 | 12.9 | 0.00 | 0.00 | 0.00 | 32 | 1020.4 |
| 20260903123349 | 34 | 248 | 0.0 | 6.4 | 0.00 | 0.00 | 0.00 | 34 | 1020.5 |
| 20260903122849 | 33 | 358 | 0.0 | 8.0 | 0.00 | 0.00 | 0.00 | 33 | 1020.5 |
| 20260903122346 | 33 | 4 | 0.0 | 8.0 | 0.00 | 0.00 | 0.00 | 34 | 1020.5 |
| 20260903121847 | 33 | 19 | 0.0 | 8.0 | 0.00 | 0.00 | 0.00 | 34 | 1020.6 |
| 20260903121350 | 33 | 295 | 0.0 | 4.8 | 0.00 | 0.00 | 0.00 | 34 | 1020.6 |
| 20260903115844 | 33 | 340 | 0.0 | 4.8 | 0.00 | 0.00 | 0.00 | 35 | 1020.7 |
| 20260903114828 | 33 | 42 | 0.0 | 3.2 | 0.00 | 0.00 | 0.00 | 36 | 1020.9 |
| 20260903114326 | 33 | 176 | 0.0 | 4.8 | 0.00 | 0.00 | 0.00 | 38 | 1021.0 |
| 20260903113839 | 33 | 328 | 0.0 | 4.8 | 0.00 | 0.00 | 0.00 | 36 | 1020.9 |
| 20260903113326 | 33 | 359 | 0.0 | 6.4 | 0.00 | 0.00 | 0.00 | 36 | 1021.0 |
| 20260903112824 | 33 | 133 | 0.0 | 6.4 | 0.00 | 0.00 | 0.00 | 37 | 1021.0 |
| 20260903112326 | 33 | 136 | 0.0 | 6.4 | 0.00 | 0.00 | 0.00 | 38 | 1021.1 |
| 20260903111825 | 33 | 59 | 0.0 | 4.8 | 0.00 | 0.00 | 0.00 | 41 | 1021.0 |
| 20260903111324 | 32 | 60 | 0.0 | 4.8 | 0.00 | 0.00 | 0.00 | 40 | 1021.1 |
| 20260903110824 | 32 | 345 | 0.0 | 6.4 | 0.00 | 0.00 | 0.00 | 40 | 1021.1 |
| 20260903110324 | 32 | 137 | 0.0 | 6.4 | 0.00 | 0.00 | 0.00 | 40 | 1021.3 |
| 20260903105824 | 32 | 188 | 0.0 | 3.2 | 0.00 | 0.00 | 0.00 | 43 | 1021.2 |
| 20260903105325 | 32 | 169 | 0.0 | 8.0 | 0.00 | 0.00 | 0.00 | 42 | 1021.4 |
| 20260903104824 | 32 | 324 | 0.0 | 8.0 | 0.00 | 0.00 | 0.00 | 43 | 1021.4 |
| 20260903104326 | 32 | 357 | 0.0 | 1.6 | 0.00 | 0.00 | 0.00 | 44 | 1021.4 |